Wind_Speed
22 15 13 18 15 12 9 5 16 19 21 19 13 9 13 11 10 7 7 12 15 19 22 24 26 28 29 28 26 26 29 28 25
20 9 11 14 15 12 13 11 15 14 14 16 13 11 10 8 4 8 11 16 21 24 26 27 28 30 29 27 28 28 28 28 28
13 11 13 15 13 11 11 10 10 11 10 9 7 9 9 12 12 16 18 19 24 26 28 30 31 31 31 29 28 28 28 27 28
9 15 13 13 16 15 14 15 14 13 12 13 14 13 15 17 19 22 24 25 28 30 31 32 32 32 31 30 29 29 28 27 26
16 15 15 17 16 16 15 14 13 14 18 21 22 23 22 23 22 24 25 27 30 32 32 34 34 33 32 31 29 29 28 29 27
17 11 15 20 23 18 16 14 12 16 18 19 22 24 24 25 25 27 29 30 31 31 31 31 31 31 32 31 30 28 28 28 29
13 13 16 21 23 18 17 15 16 19 20 23 26 26 26 25 25 28 29 30 30 29 31 30 28 28 29 29 30 29 29 28 27
13 16 18 18 19 18 19 18 19 22 25 29 29 28 26 26 28 30 30 30 29 29 29 29 28 28 28 29 30 31 31 30 28
16 21 26 21 17 16 19 20 22 25 29 28 28 26 25 28 30 29 27 27 26 25 25 27 29 31 32 33 33 32 31 32 33
22 23 19 19 17 17 18 21 25 26 26 26 26 26 28 30 28 26 25 24 26 28 29 31 31 31 32 31 31 31 31 31 32
17 14 17 20 19 19 21 23 25 25 26 25 26 28 30 27 26 26 26 28 29 30 30 30 30 30 29 29 29 30 31 31 32
17 19 18 15 17 19 21 24 27 27 27 26 29 27 25 24 24 26 28 31 32 30 29 29 28 29 30 31 33 35 36 37 39
19 18 17 17 18 20 22 25 28 27 26 27 25 22 22 24 27 31 34 33 30 29 29 29 29 31 34 35 35 35 35 35 35
14 16 19 19 21 24 26 28 27 26 25 24 23 23 24 27 31 34 32 30 31 29 29 30 33 35 35 33 32 32 32 33 35
15 18 22 23 24 24 26 27 25 24 24 23 23 25 27 30 33 32 31 30 29 29 31 34 35 32 30 31 32 34 36 38 39
20 21 24 26 26 26 25 24 25 25 25 24 25 26 29 32 30 31 30 29 29 30 32 33 29 29 31 32 34 35 37 38 38
21 24 27 29 27 25 24 25 26 25 24 24 26 29 30 29 30 29 29 28 30 32 32 28 27 29 31 33 35 36 36 36 36
27 27 30 30 28 24 25 27 27 26 24 25 26 29 28 29 28 28 29 30 32 33 29 27 28 29 32 34 34 35 35 35 36
28 32 31 30 25 25 27 28 26 24 25 26 29 28 28 28 28 30 30 32 33 30 27 26 28 30 32 35 34 34 35 36 37
33 28 31 28 25 27 28 27 25 24 25 26 29 29 27 27 28 29 30 32 33 30 28 29 29 31 34 36 36 36 35 36 37
Wind_Direction
317 335 25 21 19 76 95 67 61 55 69 57 77 86 63 48 48 281 297 305 312 312 312 311 312 310 309 305 295 285 280 279 279
323 319 17 16 33 11 42 48 48 42 48 46 36 42 36 20 337 314 307 303 306 308 309 309 310 307 304 300 298 296 290 278 270
347 349 359 357 5 12 357 20 35 35 26 45 7 10 339 315 311 298 297 300 301 301 303 305 305 306 305 302 299 294 291 291 279
342 6 2 347 342 338 338 347 355 1 357 352 357 340 328 315 301 291 290 293 293 296 302 305 306 304 302 300 297 293 293 291 287
317 296 346 350 333 324 321 331 339 347 348 349 341 328 320 309 302 296 294 293 293 294 305 307 300 296 296 295 291 290 289 289 288
314 312 306 323 328 317 320 318 327 329 330 329 319 311 305 300 299 300 297 295 297 295 292 294 295 297 295 293 291 290 288 287 286
304 308 305 318 319 310 314 313 316 319 318 315 308 304 300 301 300 296 292 291 290 290 293 296 296 296 296 296 296 295 292 287 285
301 300 291 299 314 303 297 297 303 309 311 308 308 306 305 307 306 301 297 297 299 298 300 301 299 298 297 295 293 292 290 290 287
297 296 296 291 302 304 299 304 303 302 302 302 300 298 302 306 306 302 300 298 298 300 300 299 300 301 300 297 294 292 291 289 286
305 295 280 289 290 293 297 297 300 301 300 299 299 305 307 308 305 304 304 306 309 309 307 305 304 302 298 296 295 294 293 290 286
281 286 295 287 290 296 302 303 302 302 304 305 308 313 312 313 314 312 312 310 308 307 307 307 305 303 304 303 303 302 300 296 293
280 296 293 291 301 306 307 311 312 310 308 309 313 313 313 311 308 309 311 311 311 311 312 310 311 312 311 309 308 307 305 302 300
287 285 282 290 294 298 306 309 307 306 307 311 311 312 311 312 316 317 318 315 315 316 316 317 317 313 311 310 309 308 306 305 303
301 295 292 295 299 295 298 303 306 307 311 314 315 315 318 322 323 322 318 319 319 320 320 318 316 317 315 314 314 313 311 309 306
308 300 303 304 301 300 299 302 305 311 315 317 318 320 323 327 324 321 320 322 321 320 319 318 317 317 319 320 318 316 315 315 313
303 298 308 307 302 300 304 309 312 317 321 319 320 322 327 326 323 323 322 321 320 318 317 317 318 321 323 322 321 322 320 318 319
297 300 305 306 302 305 312 313 316 317 315 319 322 325 326 325 325 323 322 320 318 318 319 319 320 322 325 325 326 324 324 325 324
309 311 309 307 306 310 311 312 315 316 317 319 321 323 324 326 326 323 321 320 319 320 319 318 319 323 327 328 328 326 327 327 326
306 302 306 309 306 308 312 313 313 316 318 319 319 323 325 326 323 322 322 321 320 319 315 315 318 323 327 329 329 329 330 328 327
300 301 309 306 306 310 312 312 313 315 313 317 321 321 324 324 322 321 319 318 320 317 314 315 319 323 329 330 330 332 331 328 328
Height
5911 5909 5905 5901 5895 5891 5891 5892 5890 5885 5877 5875 5876 5880 5877 5878 5878 5878 5876 5876 5874 5872 5870 5867 5863 5860 5857 5856 5856 5854 5853 5853 5852
5909 5907 5903 5902 5899 5896 5894 5893 5889 5886 5883 5874 5878 5876 5877 5877 5877 5876 5874 5873 5871 5868 5865 5861 5857 5854 5851 5849 5847 5846 5846 5844 5842
5908 5905 5902 5900 5898 5895 5893 5892 5888 5887 5885 5879 5880 5875 5875 5876 5874 5874 5871 5867 5866 5864 5859 5854 5851 5848 5845 5841 5839 5837 5836 5836 5836
5907 5904 5901 5900 5897 5893 5891 5889 5886 5884 5882 5879 5874 5873 5874 5872 5871 5869 5866 5864 5861 5858 5853 5850 5846 5842 5838 5835 5832 5830 5827 5827 5826
5902 5900 5899 5897 5895 5892 5890 5887 5885 5882 5879 5875 5872 5872 5871 5871 5868 5866 5862 5859 5856 5853 5847 5842 5841 5837 5832 5828 5825 5822 5820 5818 5817
5897 5895 5895 5892 5891 5889 5886 5884 5882 5880 5877 5875 5875 5873 5870 5867 5863 5859 5855 5852 5848 5845 5842 5837 5834 5830 5827 5823 5819 5815 5812 5811 5809
5894 5892 5891 5889 5887 5885 5884 5882 5879 5877 5875 5872 5870 5867 5864 5860 5855 5852 5849 5847 5843 5839 5835 5830 5826 5822 5819 5815 5812 5808 5805 5804 5801
5890 5889 5887 5885 5882 5881 5881 5880 5877 5873 5869 5866 5863 5859 5856 5852 5849 5846 5842 5838 5834 5830 5826 5822 5818 5814 5811 5807 5804 5802 5799 5795 5793
5886 5884 5882 5880 5878 5876 5875 5872 5870 5868 5865 5861 5858 5854 5851 5847 5842 5839 5835 5832 5828 5824 5819 5814 5809 5805 5801 5799 5796 5793 5789 5786 5784
5881 5878 5876 5875 5873 5871 5870 5868 5865 5862 5858 5855 5852 5847 5843 5839 5835 5832 5829 5824 5818 5813 5808 5804 5800 5797 5794 5791 5787 5783 5780 5777 5775
5875 5874 5872 5870 5868 5866 5865 5862 5859 5855 5851 5847 5844 5839 5836 5830 5826 5823 5819 5815 5810 5805 5800 5797 5793 5790 5785 5781 5777 5773 5770 5767 5764
5870 5869 5867 5865 5863 5861 5858 5855 5851 5847 5844 5840 5836 5832 5828 5825 5822 5818 5813 5808 5802 5797 5793 5788 5784 5781 5777 5773 5769 5765 5761 5757 5752
5864 5863 5861 5860 5857 5855 5852 5849 5846 5842 5838 5835 5831 5827 5824 5819 5814 5809 5804 5799 5794 5789 5785 5781 5778 5774 5769 5765 5761 5756 5752 5747 5743
5859 5858 5856 5854 5851 5849 5846 5842 5838 5835 5832 5828 5823 5819 5814 5809 5804 5800 5795 5791 5786 5782 5777 5774 5770 5766 5761 5757 5752 5747 5743 5738 5734
5854 5852 5850 5848 5844 5841 5838 5834 5831 5827 5823 5819 5815 5811 5805 5800 5797 5793 5788 5783 5779 5775 5771 5767 5762 5758 5754 5748 5743 5738 5733 5727 5722
5848 5846 5843 5841 5837 5833 5831 5828 5824 5820 5816 5812 5807 5803 5798 5794 5791 5786 5782 5778 5773 5770 5766 5760 5755 5751 5746 5741 5735 5729 5723 5717 5711
5841 5839 5836 5834 5830 5826 5824 5821 5816 5812 5808 5804 5799 5795 5791 5787 5783 5780 5775 5772 5768 5763 5757 5752 5748 5744 5740 5734 5727 5721 5714 5708 5702
5834 5832 5829 5826 5823 5820 5817 5814 5809 5805 5800 5796 5792 5789 5785 5781 5777 5773 5770 5766 5761 5756 5751 5747 5742 5738 5732 5726 5720 5713 5707 5700 5694
5827 5825 5823 5819 5816 5813 5809 5806 5802 5798 5794 5791 5789 5784 5778 5774 5771 5767 5763 5760 5755 5751 5745 5741 5736 5731 5726 5719 5713 5706 5698 5691 5685
5821 5818 5815 5812 5809 5806 5802 5799 5795 5790 5788 5785 5782 5777 5772 5768 5765 5762 5758 5754 5749 5744 5738 5734 5730 5725 5718 5711 5705 5698 5691 5684 5677